• Join FlightAware (Why Join?)
  • Login
  • US Flag GB Flag 
19:48 EST


 

Airport Tracker/Info


-or-


 

Live Flight TrackerFlight Track Log ✈ UAL252 ✈ 06-Aug-2013 ✈ KORD - KPVD

Flight Track Log - Related Links

Times and Time Zones

All times are in EDT time to prevent confusion due to time zone crossing. See the UAL252 flight status page for this flight to view local times or setup timezone preferences in your user account.

Time Position Orientation Groundspeed Altitude Reporting Facility
EDT Latitude Longitude Course Direction KTS MPH feet Rate Location/Type
14:33 42.0167 -87.9667 90° East 185 213 2,500  Level Chicago TRACON
14:34 42.0833 -87.9333 20° North 254 292 4,700 1,461 Climbing Chicago TRACON
14:35 42.1333 -87.8667 45° Northeast 291 335 5,300 2,033 Climbing Chicago TRACON
14:36 42.1500 -87.7667 77° East 313 360 8,800 3,000 Climbing Chicago TRACON
14:37 42.0959 -87.0744 77° East  Level FlightAware Approximate
14:38 42.1144 -86.9014 80° East  Level FlightAware Approximate
14:38 42.1425 -87.6139 94° East 315 362 12,200  Level Chicago Center
14:39 42.1167 -86.7265 90° East  Level FlightAware Approximate
14:39 42.1369 -87.4878 93° East 334 384 14,300  Level Chicago Center
14:40 42.1281 -87.3450 95° East 375 432 16,300 1,887 Climbing Chicago Center
14:41 42.1197 -87.1994 94° East 389 448 18,200 1,306 Climbing Chicago Center
14:42 42.1119 -87.0481 94° East 403 464 19,000 1,065 Climbing Chicago Center
14:43 42.1192 -86.8922 86° East 413 475 20,400 1,839 Climbing Chicago Center
14:44 42.1267 -86.6981 87° East 430 495 22,800 1,824 Climbing Chicago Center
14:45 42.1311 -86.5350 88° East 436 502 24,200 1,248 Climbing Chicago Center
14:46 42.1361 -86.3678 88° East 444 511 25,400 1,210 Climbing Chicago Center
14:47 42.1411 -86.1939 88° East 460 529 26,700 1,258 Climbing Chicago Center
14:48 42.1439 -86.0144 89° East 474 545 28,000 1,161 Climbing Chicago Center
14:49 42.1414 -85.8100 91° East 487 560 29,100 871 Climbing Chicago Center
14:50 42.1403 -85.6217 90° East 505 581 29,800 823 Climbing Chicago Center
14:51 42.1383 -85.4250 91° East 525 604 30,800 1,258 Climbing Chicago Center
14:52 42.1353 -85.2283 91° East 530 610 32,400 1,500 Climbing Chicago Center
14:53 42.1339 -84.9939 90° East 525 604 33,900 1,258 Climbing Chicago Center
14:54 42.1303 -84.8022 91° East 517 595 35,000 532 Climbing Chicago Center
14:55 42.1253 -84.6100 92° East 516 594 35,000  Level Chicago Center
14:56 42.1286 -84.4192 89° East 512 589 35,000  Level Chicago Center
14:57 42.1503 -84.2394 81° East 490 564 35,000  Level Chicago Center
14:58 42.1731 -84.0222 82° East 491 565 35,000  Level Chicago Center
14:59 42.1931 -83.8400 82° East 492 566 35,000  Level Chicago Center
15:00 42.2133 -83.6583 81° East 492 566 35,000  Level Chicago Center
15:02 42.2289 -83.4381 84° East 497 572 35,000  Level Cleveland Center
15:03 42.2292 -83.2472 90° East 497 572 35,000  Level Cleveland Center
15:04 42.2292 -83.0594 90° East 497 572 35,000  Level Cleveland Center
15:05 42.2308 -82.8769 89° East 497 572 35,000  Level Cleveland Center
15:06 42.2344 -82.6892 88° East 497 572 35,000  Level Cleveland Center
15:07 42.2336 -82.5042 90° East 497 572 35,000  Level Cleveland Center
15:08 42.2325 -82.3189 90° East 497 572 35,000  Level Cleveland Center
15:09 42.2353 -82.1172 89° East 497 572 35,000  Level Cleveland Center
15:10 42.2333 -81.9375 91° East 490 564 35,000  Level Cleveland Center
15:11 42.2333 -81.7497 90° East 490 564 35,000  Level Cleveland Center
15:12 42.2308 -81.5647 91° East 490 564 35,000  Level Cleveland Center
15:13 42.2303 -81.3825 90° East 497 572 35,000  Level Cleveland Center
15:14 42.2292 -81.1972 90° East 497 572 35,000  Level Cleveland Center
15:15 42.2258 -81.0289 91° East 491 565 35,000  Level Cleveland Center
15:16 42.2222 -80.8439 91° East 491 565 35,000  Level Cleveland Center
15:17 42.2225 -80.6533 90° East 496 571 35,000  Level Cleveland Center
15:18 42.2183 -80.4711 92° East 496 571 35,000  Level Cleveland Center
15:19 42.2161 -80.2889 91° East 490 564 35,000  Level Cleveland Center
15:20 42.2133 -80.1039 91° East 490 564 35,000  Level Cleveland Center
15:21 42.2081 -79.9075 92° East 485 558 35,000  Level Cleveland Center
15:22 42.2047 -79.7256 91° East 480 552 35,000  Level Cleveland Center
15:23 42.1992 -79.5517 92° East 475 547 35,000  Level Cleveland Center
15:24 42.1953 -79.3725 92° East 475 547 35,000  Level Cleveland Center
15:25 42.1914 -79.1958 92° East 475 547 35,000  Level Cleveland Center
15:26 42.2017 -79.0164 86° East 475 547 35,000  Level Cleveland Center
15:27 42.2242 -78.8475 80° East 464 534 35,000  Level Cleveland Center
15:28 42.2486 -78.6758 79° East 464 534 35,000  Level Cleveland Center
15:29 42.2686 -78.5097 81° East 464 534 35,000  Level Cleveland Center
15:30 42.2883 -78.3378 81° East 459 528 35,000  Level Cleveland Center
15:31 42.3078 -78.1714 81° East 453 521 35,000  Level Cleveland Center
15:32 42.3272 -78.0050 81° East 448 516 35,000  Level Cleveland Center
15:33 42.3483 -77.8356 80° East 448 516 35,000  Level Cleveland Center
15:34 42.3653 -77.6800 82° East 454 522 35,000  Level Cleveland Center
15:35 42.3839 -77.5133 81° East 454 522 35,000  Level Cleveland Center
15:36 42.4042 -77.3436 81° East 454 522 35,000  Level Cleveland Center
15:38 42.4458 -76.9622 81° East 449 517 35,000  Level Boston Center
15:39 42.4647 -76.7975 81° East 449 517 35,000  Level Boston Center
15:40 42.4811 -76.6411 82° East 449 517 35,000  Level Boston Center
15:41 42.4997 -76.4733 81° East 455 524 35,000  Level Boston Center
15:42 42.5119 -76.2992 85° East 455 524 35,000  Level Boston Center
15:43 42.5053 -76.1269 93° East 455 524 35,000 -50 Level Boston Center
15:44 42.4939 -75.9544 95° East 463 533 34,900 -545 Descending Boston Center
15:45 42.4825 -75.7822 95° East 463 533 33,900 -1,008 Descending Boston Center
15:46 42.4708 -75.6125 95° East 463 533 32,900 -1,059 Descending Boston Center
15:47 42.4586 -75.4403 95° East 458 527 31,800 -1,033 Descending Boston Center
15:48 42.4444 -75.2706 96° East 458 527 30,800 -1,059 Descending Boston Center
15:49 42.4317 -75.0986 96° East 458 527 29,700 -1,119 Descending Boston Center
15:50 42.4189 -74.9292 96° East 458 527 28,600 -893 Descending Boston Center
15:51 42.4081 -74.7544 95° East 463 533 27,900 -298 Descending Boston Center
15:52 42.3928 -74.5711 96° East 474 545 28,000 50 Climbing Boston Center
15:53 42.3775 -74.3794 96° East 474 545 28,000  Level Boston Center
15:54 42.3639 -74.2019 96° East 474 545 28,000 -347 Level Boston Center
15:55 42.3478 -74.0244 97° East 474 545 27,300 -1,438 Descending Boston Center
15:56 42.3333 -73.8528 96° East 469 540 25,100 -1,846 Descending Boston Center
15:57 42.3208 -73.6756 95° East 458 527 23,700 -1,068 Descending Boston Center
15:58 42.3078 -73.5069 96° East 463 533 23,000 -1,000 Descending Boston Center
15:59 42.2964 -73.3831 97° East 457 526 21,700 -1,815 Descending Boston Center
16:00 42.2750 -73.2033 99° East 426 490 19,400 -1,350 Descending Boston Center
16:01 42.2194 -73.0681 119° Southeast 380 437 19,000 -198 Descending Boston Center
16:02 42.1533 -72.9778 135° Southeast 387 445 19,000 -298 Level Boston Center
16:03 42.0767 -72.8736 135° Southeast 361 415 18,400 -496 Descending Boston Center
16:04 42.0061 -72.7808 136° Southeast 361 415 18,000 -198 Descending Boston Center
16:05 41.9394 -72.6883 134° Southeast 355 409 18,000 -500 Level Boston Center
16:06 41.8833 -72.5850 126° Southeast 350 403 17,000 -1,271 Descending Boston Center
16:07 41.8336 -72.4931 126° Southeast 340 391 15,500 -1,714 Descending Boston Center
16:08 41.7731 -72.3872 127° Southeast 340 391 13,600 -2,043 Descending Boston Center
16:08 41.7439 -72.3344 127° Southeast 318 366 12,300 -1,677 Descending Boston Center
16:09 41.6894 -72.2400 128° Southeast 306 352 11,000 -527 Descending Boston Center
16:11 41.6247 -72.1208 126° Southeast 311 358 11,000 -323 Level Boston Center
16:11 41.5828 -72.0489 128° Southeast 295 339 10,300 -1,200 Descending Boston Center
16:12 41.5492 -71.9908 128° Southeast 291 335 9,300 -1,603 Descending Boston Center
16:13 41.5092 -71.8664 113° Southeast 286 329 7,200 -1,567 Descending Boston Center
16:14 41.5147 -71.7719 85° East 281 323 5,800 -1,138 Descending Boston Center
16:15 41.5667 -71.7158 39° Northeast 273 314 5,000 -414 Descending Boston Center
16:16 41.6244 -71.6486 41° Northeast 273 314 5,000  Level Boston Center
16:17 41.6906 -71.5894 34° Northeast 258 297 5,000  Level Boston Center
16:18 41.7403 -71.5469 33° Northeast 267 307 5,000 -263 Level Boston Center
16:19 41.8003 -71.4933 34° Northeast 216 249 4,500 -520 Descending Boston Center
16:20 41.8333 -71.4397 50° Northeast 182 209 3,900 -887 Descending Boston Center
16:21 41.8183 -71.3900 112° Southeast 139 160 2,800 -1,304 Descending Boston Center
16:22 41.7847 -71.3794 167° South 130 150 1,400 -1,096 Descending Boston Center
16:23 41.7536 -71.4022 209° Southwest 140 161 700 -778 Descending Boston Center